Flag for United Kingdom Weather past 2 weeks in Liverpool, England, United Kingdom

Now
48 °F

Clear.


Feels Like: 48 °F
Forecast: 56 / 62 °F
Wind: 2 mph from North

Location: Liverpool Airport

Current Time: Jul 31, 2015 at 4:25:21 AM

Latest Report: Jul 31, 2015 at 3:20 AM


Visibility: 10 mi

Pressure: 30.12 "Hg

Humidity: 87%

Dew point: 45 °F

Location of LiverpoolLocation

Historic Weather in Liverpool — Graph

°F

Liverpool temperature yesterday

Maximum temperature yesterday: 61 °F (at 12:50 PM)
Minimum temperature yesterday: 52 °F (at 11:20 PM)
Average temperature yesterday: 57 °F

Past Weeks' High & Low Weather Summary

 TemperatureHumidityPressure
High72 °F (Jul 16, 4:20 PM)100% (Jul 16, 2:50 AM)30.15 "Hg (Jul 16, 2:50 AM)
Low48 °F (Jul 16, 4:50 AM)49% (Jul 17, 3:20 PM)29.33 "Hg (Jul 26, 8:50 PM)
Average59 °F78%29.83 "Hg
* Reported Jul 16 2:20 AM — Jul 31 2:50 AM, Liverpool, Weather by CustomWeather, © 2015

Note: Actual official high and low records may vary slightly from our data, if they occured in-between our weather recording intervals... More about our weather records

Advertising

Liverpool weather history for previous 24 hours

 ConditionsComfort  
Time TempWeatherWind HumidityBarometerVisibility
2:50 AM
Fri, Jul 31
48 °FClear.3 mph87%30.12 "Hg10 mi
2:20 AM48 °FClear.3 mph94%30.12 "Hg10 mi
1:50 AM48 °FClear.6 mph87%30.12 "Hg10 mi
1:20 AM50 °FClear.3 mph82%30.12 "Hg10 mi
12:50 AM48 °FClear.3 mph87%30.12 "Hg10 mi
12:20 AM50 °FClear.5 mph82%30.12 "Hg10 mi
11:50 PM
Thu, Jul 30
54 °FClear.2 mph72%30.15 "Hg10 mi
11:20 PM52 °FClear.2 mph77%30.15 "Hg10 mi
10:20 PM54 °FClear.3 mph72%30.15 "Hg10 mi
9:50 PM54 °FSunny.5 mph67%30.12 "Hg10 mi
9:20 PM54 °FSunny.6 mph67%30.12 "Hg10 mi
8:50 PM55 °FSunny.6 mph67%30.12 "Hg10 mi
8:20 PM55 °FPassing clouds.8 mph67%30.12 "HgN/A
7:50 PM57 °FPassing clouds.9 mph67%30.12 "HgN/A
7:20 PM57 °FPassing clouds.12 mph63%30.12 "HgN/A
6:50 PM59 °FPassing clouds.13 mph59%30.15 "HgN/A
6:20 PM59 °FPassing clouds.14 mph59%30.15 "HgN/A
5:50 PM57 °FScattered clouds.13 mph63%30.15 "HgN/A
5:20 PM61 °FScattered clouds.15 mph59%30.15 "HgN/A
4:50 PM59 °FScattered clouds.15 mph63%30.15 "HgN/A
4:20 PM59 °FScattered clouds.15 mph59%30.15 "HgN/A
3:50 PM57 °FScattered clouds.16 mph63%30.15 "HgN/A
3:20 PM59 °FScattered clouds.16 mph63%30.15 "HgN/A
2:50 PM57 °FScattered clouds.16 mph63%30.12 "HgN/A
2:20 PM59 °FScattered clouds.15 mph68%30.12 "HgN/A
1:50 PM57 °FScattered clouds.17 mph63%30.12 "HgN/A
1:20 PM59 °FScattered clouds.16 mph63%30.12 "HgN/A
12:50 PM61 °FScattered clouds.18 mph52%30.12 "HgN/A
12:20 PM59 °FScattered clouds.17 mph59%30.12 "HgN/A
11:50 AM57 °FScattered clouds.17 mph59%30.09 "HgN/A
11:20 AM57 °FScattered clouds.18 mph63%30.09 "HgN/A
10:50 AM57 °FSprinkles. Passing clouds.16 mph63%30.09 "HgN/A
10:20 AM57 °FSprinkles. Passing clouds.18 mph67%30.09 "HgN/A
9:50 AM59 °FPassing clouds.17 mph59%30.07 "HgN/A
9:20 AM57 °FPassing clouds.18 mph63%30.07 "HgN/A
8:50 AM57 °FPassing clouds.16 mph63%30.07 "HgN/A
8:20 AM57 °FPassing clouds.17 mph63%30.07 "HgN/A
7:50 AM55 °FPassing clouds.17 mph67%30.04 "HgN/A
7:20 AM55 °FPassing clouds.15 mph67%30.04 "HgN/A
6:50 AM55 °FPassing clouds.14 mph67%30.04 "HgN/A
6:20 AM55 °FPassing clouds.15 mph72%30.04 "HgN/A
5:50 AM55 °FPassing clouds.15 mph72%30.01 "HgN/A
5:20 AM55 °FPassing clouds.17 mph77%30.01 "HgN/A
4:50 AM55 °FPassing clouds.16 mph77%30.01 "HgN/A
4:20 AM55 °FPassing clouds.15 mph72%30.01 "HgN/A
Weather by CustomWeather, © 2015

See weather overviewHow to use our weather pages